TimeEDT,TemperatureF,Dew PointF,Humidity,Sea Level PressureIn,VisibilityMPH,Wind Direction,Wind SpeedMPH,Gust SpeedMPH,PrecipitationIn,Events,Conditions,WindDirDegrees,DateUTC
12:54 AM,41.0,39.0,93,30.23,10.0,Calm,Calm,-,N/A,,Clear,0,2013-10-11 04:54:00
1:54 AM,39.9,37.9,93,30.22,10.0,Calm,Calm,-,N/A,,Clear,0,2013-10-11 05:54:00
2:09 AM,39.2,37.4,93,30.21,10.0,South,3.5,-,N/A,,Partly Cloudy,190,2013-10-11 06:09:00
2:54 AM,37.9,36.0,93,30.22,10.0,Calm,Calm,-,N/A,,Clear,0,2013-10-11 06:54:00
3:54 AM,37.0,35.1,93,30.21,10.0,Calm,Calm,-,N/A,,Clear,0,2013-10-11 07:54:00
4:54 AM,37.9,36.0,93,30.22,10.0,Calm,Calm,-,N/A,,Clear,0,2013-10-11 08:54:00
5:54 AM,36.0,35.1,97,30.22,10.0,Calm,Calm,-,N/A,,Clear,0,2013-10-11 09:54:00
6:54 AM,36.0,33.1,89,30.24,10.0,Calm,Calm,-,N/A,,Clear,0,2013-10-11 10:54:00
7:54 AM,36.0,34.0,93,30.25,10.0,Calm,Calm,-,N/A,,Clear,0,2013-10-11 11:54:00
8:54 AM,39.0,37.9,96,30.25,10.0,Calm,Calm,-,N/A,,Clear,0,2013-10-11 12:54:00
9:54 AM,46.0,42.1,86,30.23,10.0,Calm,Calm,-,N/A,,Clear,0,2013-10-11 13:54:00
10:54 AM,53.1,44.1,71,30.22,10.0,Calm,Calm,-,N/A,,Clear,0,2013-10-11 14:54:00
11:54 AM,62.1,44.1,52,30.21,10.0,Calm,Calm,-,N/A,,Clear,0,2013-10-11 15:54:00
12:54 PM,68.0,39.0,35,30.18,10.0,Calm,Calm,-,N/A,,Clear,0,2013-10-11 16:54:00
1:54 PM,72.0,36.0,27,30.16,10.0,Calm,Calm,-,N/A,,Clear,0,2013-10-11 17:54:00
2:54 PM,73.9,25.0,16,30.15,10.0,Calm,Calm,-,N/A,,Clear,0,2013-10-11 18:54:00
3:54 PM,72.0,33.1,24,30.16,10.0,NNW,5.8,-,N/A,,Clear,340,2013-10-11 19:54:00
4:54 PM,71.1,36.0,28,30.16,10.0,Calm,Calm,-,N/A,,Clear,0,2013-10-11 20:54:00
5:54 PM,61.0,45.0,56,30.17,10.0,Calm,Calm,-,N/A,,Clear,0,2013-10-11 21:54:00
6:54 PM,54.0,46.0,75,30.19,10.0,Calm,Calm,-,N/A,,Clear,0,2013-10-11 22:54:00
7:54 PM,50.0,44.1,80,30.20,10.0,Calm,Calm,-,N/A,,Clear,0,2013-10-11 23:54:00
8:54 PM,46.9,42.1,83,30.21,10.0,Calm,Calm,-,N/A,,Clear,0,2013-10-12 00:54:00
9:54 PM,45.0,41.0,86,30.22,10.0,Calm,Calm,-,N/A,,Clear,0,2013-10-12 01:54:00
10:54 PM,43.0,41.0,93,30.23,10.0,Calm,Calm,-,N/A,,Clear,0,2013-10-12 02:54:00
11:54 PM,39.9,37.9,93,30.23,10.0,Calm,Calm,-,N/A,,Clear,0,2013-10-12 03:54:00